Regional Weather Roundup
Issued by NWS

Home | Current Version | Previous Version | Text Only | Print | Product List | Glossary On
Versions: 1 2 3 4 5 6 7 8 9 10 11 12 13 14 15 16 17 18 19 20 21 22 23 24 25 26 27 28 29 30 31 32 33 34 35 36 37 38 39 40 41 42 43 44 45 46 47 48 49 50
000
ASUS43 KMKX 010721
RWRWI

WISCONSIN REGIONAL WEATHER ROUNDUP
NATIONAL WEATHER SERVICE MILWAUKEE/SULLIVAN WI
200 AM CDT WED JUL 01 2015

NOTE: "FAIR" INDICATES FEW OR NO CLOUDS BELOW 12,000 FEET WITH NO
SIGNIFICANT WEATHER AND/OR OBSTRUCTIONS TO VISIBILITY.

WIZ001-002-006>008-014>016-023>028-010800-
NORTHWEST WISCONSIN

CITY           SKY/WX    TMP DP  RH WIND       PRES   REMARKS
SUPERIOR ARPT  CLEAR     48  47  99 CALM      29.99F
ASHLAND        CLEAR     40  39  97 CALM      30.00F FOG
HAYWARD        PTCLDY    45  43  93 N3        30.00R
SIREN          PTCLDY    50  47  92 CALM      29.98F
CUMBERLAND     PTCLDY    52  48  87 E3        29.98F
RICE LAKE      PTCLDY    51  49  92 CALM      29.99F
CHETEK         PTCLDY    55  49  81 NE5       29.99S
LADYSMITH      CLEAR     48  45  91 CALM      30.00F
EAU CLAIRE     CLEAR     52  47  83 CALM      29.97R
MENOMONIE      PTCLDY    56  47  72 NE3       29.98S
NEW RICHMOND   PTCLDY    55  50  85 CALM      29.98S
OSCEOLA        PTCLDY    57  51  81 CALM      30.01R
$$

WIZ003>005-009-010-017-018-010800-
NORTH CENTRAL WISCONSIN

CITY           SKY/WX    TMP DP  RH WIND       PRES   REMARKS
MANITOWISH WTR CLEAR     40  40 100 CALM      29.99S FOG
ARBOR VITAE    CLEAR     42  40  93 N3        29.98S
WOODRUFF       CLEAR     42  40  93 N3        29.98S
RHINELANDER    PTCLDY    39  38  96 CALM      29.99R FOG
EAGLE RIVER    CLEAR     42  42 100 CALM      29.98S
LAND O LAKES   MOCLDY    44  43  99 N3        30.00S
PHILLIPS       PTCLDY    41  41  99 CALM      29.99S
TOMAHAWK       CLEAR     37  36  96 CALM      29.99S
MEDFORD        CLEAR     43  42  95 CALM      29.98S
MERRILL        CLEAR     41  41 100 CALM      29.99S
$$

WIZ029-030-035-036-043>047-010800-
CENTRAL WISCONSIN

CITY           SKY/WX    TMP DP  RH WIND       PRES   REMARKS
WAUSAU         CLEAR     49  46  90 N5        29.97R
MOSINEE        PTCLDY    48  46  93 N6        29.99R
MARSHFIELD     PTCLDY    51  44  77 NE8       29.97S
STEVENS POINT  PTCLDY    46  45  94 CALM      29.97S
WAUPACA        CLEAR     50  47  88 NW3       29.96S
WAUTOMA        CLEAR     54  48  80 NE7       29.96F
WISC RAPIDS    PTCLDY    52  45  77 NE5       29.97S
CAMP DOUGLAS   FOG       45  45 100 W5        29.96R VSB 1
$$

WIZ011>013-019>022-031-037>040-048>050-010800-
NORTHEAST WISCONSIN

CITY           SKY/WX    TMP DP  RH WIND       PRES   REMARKS
ANTIGO         CLEAR     43  43  99 CALM      29.96S
SHAWANO        CLEAR     50  46  84 NW5       29.95S
OCONTO         CLOUDY    50  47  89 N7        29.92F
STURGEON BAY   CLOUDY    54  45  71 N9        29.93F
GREEN BAY      PTCLDY    51  47  86 NW7       29.93F
MANITOWOC      PTCLDY    52  48  87 MISG      29.93S
APPLETON       CLEAR     50  43  76 N6        29.94F
CLINTONVILLE   CLEAR     50  43  76 NW6       29.95S
OSHKOSH        CLEAR     53  45  74 N8        29.94S
$$

WIZ032>034-041-042-053>061-010800-
SOUTHWEST WISCONSIN

CITY           SKY/WX    TMP DP  RH WIND       PRES   REMARKS
LA CROSSE      CLEAR     59  51  75 CALM      29.95R
SPARTA         CLEAR     46  45  96 CALM      29.97R
VIROQUA        CLEAR     55  52  89 NE6       29.96R
BOSCOBEL       FOG       53  51  93 CALM      29.95R VSB 1
PRAIRIE DU CHI CLEAR     57  55  92 CALM      29.95R
PLATTEVILLE    PTCLDY    56  55  94 N5        29.93S
$$

WIZ056-057-062-063-064-067-068-010800-
SOUTH CENTRAL WISCONSIN

CITY           SKY/WX    TMP DP  RH WIND       PRES   REMARKS
REEDSBURG      MOCLDY    57  53  88 NE3       29.94S
BARABOO/DELLS  PTCLDY    57  53  84 NE6       29.94S
LONE ROCK      PTCLDY    57  53  86 VRB3      29.94R
MINERAL POINT  PTCLDY    55  54  94 N3        29.93S
MADISON        CLOUDY    60  55  83 CALM      29.92R
MIDDLETON      CLOUDY    61  57  88 N6        29.93R
WATERTOWN      CLOUDY    55  55 100 E3        29.93S
MONROE         MOCLDY    59  55  88 E5        29.92R
JANESVILLE     PTCLDY    57  55  94 E3        29.92F
$$

WIZ051-052-058>065-066-070>072-010800-
SOUTHEAST WISCONSIN

CITY           SKY/WX    TMP DP  RH WIND       PRES   REMARKS
MILWAUKEE      CLOUDY    53  49  86 NE6       29.93F
WAUKESHA       CLOUDY    50  48  93 CALM      29.94S
MILWAUKEE/TIMM CLEAR     52  46  82 CALM      29.94S
RACINE         CLOUDY    55  49  80 N7        29.94S
BURLINGTON     PTCLDY    52  50  93 E5        29.93S
KENOSHA        CLOUDY    53  50  89 N3        29.93S
FOND DU LAC    CLOUDY    57  49  74 N9        29.94S
SHEBOYGAN      CLEAR     52  50  93 NW5       29.93S
WEST BEND      MOCLDY    52  48  87 CALM      29.93S
JUNEAU         CLOUDY    58  55  89 N3        29.94S
$$

LSZ147-162-010800-
LAKE SUPERIOR

STATION/POSITION TIME  TEMP    WIND        PRES    WAVE
                       AIR SEA DIR/SP/G            HT/PER
                 (UTC) (F)     (DEG/KT/KT) (MB)    (FT/S)
W MID LAKE BUOY  0650   42 38  110/  6/  6 1016.5S   1/ 5
DEVILS ISLAND    0700   54      50/  3/  3 1016.2F
SAXON HARBOR     0600   45        CALM     1015.6S
$$

LMZ867-665-643>646-010800-
LAKE MICHIGAN

STATION/POSITION TIME  TEMP    WIND        PRES    WAVE
                       AIR SEA DIR/SP/G            HT/PER
                 (UTC) (F)     (DEG/KT/KT) (MB)    (FT/S)
CHAMBERS ISLAND  0600   54     330/ 10/ 14 1013.5S
S GREEN BAY BUOY 0500   58 69  340/ 14/ 17 1014.8
N MID LAKE BUOY  0650   46 41  310/ 10/ 12 1012.6F   2/ 4
NORTHPORT PIER   0600   53     340/ 14/ 17 1013.2S
SISTER BAY       0614   53     360/ 15/ 20   N/A
ALGOMA LAKESHORE 0540          320/  9/ 11   N/A
KEWAUNEE LAKESHO 0700   55     340/  7/ 10 1012.4F
SHEBOYGAN LAKESH 0700   55     300/  7/  8 1013.6F
PORT WASHINGTON  0600   55     290/  3/  5 1014.2F
ATWATER BUOY     0700   55      10/  8/ 10 1014.5F
MILWAUKEE LAKESH 0700   54      30/  6/  7   N/A
KENOSHA   LAKESH 0700   56     360/  9/ 14 1013.2S
$$

TC  - TEMPERATURE IN CELSIUS
VSB - VISIBILITY IN STATUTE MILES
WCI - WIND CHILL INDEX
HX  - HEAT INDEX



USA.gov is the U.S. government's official web portal to all federal, state and local government web resources and services.